Погода в Ашхабаде

Поиск расширенной информации на нашем сайте:

Полезная информация:

Новости сайта



14.11.2019
Обновлён Долгосрочный прогноз погоды по России и другим странам хСССР на ноябрь-декабрь 2019 года.
Опубликованы прогностические карты: Предварительный прогноз на декабрь 2019 года, Предварительный прогноз на январь 2020 года, Предварительная схема синоптических процессов на декабрь 2019 г..

11.11.2019
Обновлены Долгосрочный прогноз погоды по России и другим странам хСССР на ноябрь-декабрь 2019 года и Предварительный прогноз на зиму 2019/2020 годов

04.11.2019
Опубликован Долгосрочный прогноз погоды по России и другим странам хСССР на ноябрь 2019 года
Сравнение прогнозируемой аномалии приземной температуры воздуха на ноябрь 2019 года по разным моделям
Предварительный прогноз на зиму 2019/2020 года




Погода в Ашхабаде - сегодня

Время (UTC), дата Ветер
(°,м/с) 
Видим.   Явления Облачность Т
(°С)
Тd
(°С)
f(%) Тe
(°С)
Pmin
(гПа)
dP
(гПа)
Po
(мм)
O2
(г/м3)
Тmin Tmax R s Состояние
почвы
21 17.11.19 070 (В) 10 км    6/4 1500 м средняя 
[Sc|Ac trans]
+5 -1.6 62 +6  1032  -1.6  754  299           
00 18.11.19 160 (Ю) 10 км    8/4 1500 м средняя 
[Sc|Ac trans]
+4.3 -0.2 73 +5  1031.6  -0.4  754  299           
03 18.11.19 110 (В) 10 км    4/0 верхняя 
[Ci fib]
+3.2 +0.6 83 +4  1031.2  -0.4  754  300  +2.6        сухая 
06 18.11.19 040 (СВ) 10 км    10/3 1500 м средняя, верхняя 
[Sc|Ac lent|Ci]
+6.1 +0.8 69 +6  1031.2  0.2  754  297  +2.6         
09 18.11.19 020 (С) 10 км    10/6 1500 м кучево-дожд., средняя 
[Cb cap|Ac und]
+8.6 -1.2 50 +9  1029.1  -1.8  753  294           
12 18.11.19 350 (С) 10 км    10/6 1500 м кучево-дожд., средняя 
[Cb cap|Ac und]
+8.7 -1.9 47 +9  1028.4  -0.7  752  294           
15 18.11.19 080 (В) 10 км    10/6 1500 м кучево-дожд., средняя 
[Cb cap|Ac und]
+8 -3 46 +9  1028.1  -0.3  752  295    +9       
18 18.11.19 300 (СЗ) 10 км    10/6 1500 м кучево-дожд., средняя 
[Cb cap|Ac und]
+7.2 -0.9 56 +7  1027.6  -0.5  751  295    +9       
21 18.11.19 030 (СВ) 10 км  {ливн. осадки}  10/6 1500 м кучево-дожд., средняя 
[Cb cap|Ac und]
+6.6 +0.5 65 +8  1026.1  -1.6  750  295           
00 19.11.19 300 (СЗ) 10 км  {ливн. осадки}  10/6 1500 м кучево-дожд., средняя 
[Cb cap|Ac und]
+6 +0.3 67 +6  1025.3  -0.8  750  295           
03 19.11.19 350 (С) 10 км    9/6 1500 м средняя 
[Sc|Ac trans]
+5.2 -0.7 66 +6  1025.2  -0.3  749  296  +4.8    0.0    влажная 
06 19.11.19 320 (СЗ) 10 км    8/0 средняя 
[Sc|Ac trans]
+8.6 -2.7 45 +8  1025  0.2  750  293  +4.8    0.0     
09 19.11.19 310 (СЗ) 10 км    8/4 1500 м средняя 
[Sc|Ac trans]
+10.4 -3.6 37 +10  1024.1  -0.8  749  291           
12 19.11.19 300 (СЗ) 10 км    6/4 1500 м средняя 
[Sc|Ac trans]
+11.8 -1.9 38 +12  1022.9  -1  748  289           
15 19.11.19 270 (З) 10 км    9/4 1500 м средняя 
[Sc|Ac und]
+10 +1.1 54 +10  1023.2  0.2  748  291    +12.2       
18 19.11.19 280 (З) 10 км    10/4 1500 м средняя 
[Sc|Ac und]
+9 +2.7 65 +9  1023.4  0.1  748  292    +12.2       
21 19.11.19 270 (З) 10 км    8/4 1500 м средняя 
[Sc|Ac und]
+8.2 +1.9 64 +8  1022.5  -1  748  292           
00 20.11.19 270 (З) 10 км    9/4 1500 м средняя 
[Sc|Ac und]
+7.4 +1.3 65 +7  1021.8  -0.8  747  293           
03 20.11.19 280 (З) 10 км    9/4 1500 м средняя 
[Sc|Ac und]
+7.5 +1.7 67 +7  1022.2  0.4  747  293  +6.2        сухая 
06 20.11.19 280 (З) 10 км    10/10 1000 м кучево-дожд. 
[Cb cap]
+9.4 -2.5 43 +9  1023.2  1.2  748  292  +6.2         
09 20.11.19 280 (З) 10 км    10/10 1200 м кучево-дожд. 
[Cb cap]
+10.6 -3.6 37 +11  1021.7  -1.4  747  290           
12 20.11.19 320 (СЗ) 10 км    10/10 900 м кучево-дожд. 
[Cb cap]
+11 +0 47 +12  1021.2  -0.4  747  289    +1.3       
15 20.11.19 270 (З) 10 км  слаб. ливневой дождь  10/10 1000 м кучево-дожд. 
[Cb cap]
+10 +1.9 57 +10  1022.2  0.9  748  290    +11.4  0.0     
18 20.11.19 290 (З) 10 км  слаб. ливневой дождь  10/10 1000 м кучево-дожд. 
[Cb cap]
+8.2 +4.6 78 +8  1022.9  0.5  748  292    +11.4  0.0     
21 20.11.19 290 (З) 10 км  слаб. ливневой дождь  10/10 1200 м кучево-дожд. 
[Cb cap]
+8 +4.3 77 +7  1022.7  -0.2  748  292           
Время (UTC), дата Ветер
(°,м/с) 
Видим.   Явления Облачность Т
(°С)
Тd
(°С)
f(%) Тe
(°С)
Pmin
(гПа)
dP
(гПа)
Po
(мм)
O2
(г/м3)
Тmin Tmax R s Состояние
почвы

Для получения пояснительной информации подведите курсор к названию столбца.

ПОГОДА в Ашхабаде - архив

Всё, что Вы хотите узнать о погоде в Ашхабаде - удобно и подробно!

Выберите нужную дату (начиная с 1 января 2019* года) и нажмите кнопку "Найти".
Будут отображены архивные сводки погоды по пункту Ашхабад, начиная с указанной даты.


Отображать данные в формате CSV (для использования в таблицах Excel)


Внимание! Наш архив погоды предназначен исключительно для личного некоммерческого использования в познавательных целях. Если Вам необходимы официальные справки о состоянии погоды (для производственных, юридических, коммерческих и т.п. целей), обращайтесь в органы Росгидромета.

*Примечание: данная дата относится к архиву по метеостанциям СССР (Россия, СНГ, Балтия).
Архив по метеостанциям Зарубежной Европы и Азии (кроме Китая) хранится 10 дней, по другим регионам земного шара (Китай, Африка, Америка, Австралия, Океания) - 1 день.

Ашхабад - район местоположения метеостанции


Название, широта, долгота, высота метеостанции:
Ашхабад (город) 38°ш. 58.3°д. 208 м над ур. моря [Туркменистан]

Дополнительная информация

В oтличие oт бoльшинства пoгoдных сайтoв мы публикуем пoдрoбную метеoинфoрмацию в детальнoм прoфессиoнальнoм фoрмате.

Характеристики температуры и влажнoсти вoздуха измеряются на высoте 2 м в тени вдали oт зданий и деревьев.
Скoрoсть ветра измеряется на высoте 10 м (на урoвне рoста челoвека скoрoсть ветра ниже в 1.5-2 раза). Если метеoстанция нахoдится в гoрoде или в лесу, тo скoрoсть ветра занижена на 2-4 м/с пo сравнению с oткрытым местoм. Скoрoсть ветра над акватoриями крупных рек и oзёр, а также на вершинах хoлмoв на 2-5 м/с выше, чем в oбычных услoвиях.
Атмoсфернoе давление в разных тoчках местнoсти мoжет значительнo oтличаться oт давления на метеoстанции, в зависимoсти oт услoвий рельефа (при пoдъёме на 10 м давление пoнижается примернo на 1 мм рт.ст.).